This is the latest recevied weather packets stored in our database for station/object KE2HEH. If no packets are shown the sender has not sent any weather packets the latest 1 day(s).
| Time | Temp. | Humidity | Pressure | Rain* | Wind** | Luminosity | Snow |
|---|---|---|---|---|---|---|---|
| 1778052725 | 12.22° C | 94% | 1011.4 hPa | 0 mm | 8.49 m/s, 190° | 0 W/m² | - |
| 1778052422 | 12.22° C | 94% | 1011.7 hPa | 0 mm | 8.49 m/s, 199° | 0 W/m² | - |
| 1778052120 | 12.22° C | 94% | 1011.5 hPa | 0 mm | 8.94 m/s, 200° | 0 W/m² | - |
| 1778051817 | 12.22° C | 94% | 1011.6 hPa | 0 mm | 5.81 m/s, 202° | 0 W/m² | - |
| 1778051515 | 12.22° C | 94% | 1011.6 hPa | 0 mm | 8.05 m/s, 210° | 0 W/m² | - |
| 1778051211 | 12.22° C | 94% | 1011.7 hPa | 0 mm | 8.05 m/s, 210° | 0 W/m² | - |
| 1778050908 | 12.22° C | 94% | 1011.6 hPa | 0 mm | 8.05 m/s, 191° | 0 W/m² | - |
| 1778050607 | 12.22° C | 94% | 1011.6 hPa | 0 mm | 7.6 m/s, 192° | 0 W/m² | - |
| 1778050303 | 12.22° C | 94% | 1011.5 hPa | 0 mm | 5.81 m/s, 235° | 0 W/m² | - |
| 1778050000 | 12.22° C | 94% | 1011.5 hPa | 0 mm | 6.71 m/s, 201° | 0 W/m² | - |
| 1778049695 | 12.22° C | 94% | 1011.5 hPa | 0 mm | 7.15 m/s, 186° | 0 W/m² | - |
| 1778049394 | 12.22° C | 94% | 1011.4 hPa | 0 mm | 8.05 m/s, 228° | 0 W/m² | - |
| 1778049090 | 12.22° C | 94% | 1011.7 hPa | 0 mm | 9.39 m/s, 180° | 0 W/m² | - |
| 1778048789 | 12.22° C | 94% | 1011.6 hPa | 0 mm | 7.15 m/s, 199° | 0 W/m² | - |
| 1778048486 | 12.22° C | 93% | 1011.5 hPa | 0 mm | 6.71 m/s, 223° | 0 W/m² | - |
| 1778048181 | 12.22° C | 93% | 1011.4 hPa | 0 mm | 9.83 m/s, 210° | 0 W/m² | - |
| 1778047880 | 12.22° C | 93% | 1011.7 hPa | 0 mm | 9.83 m/s, 200° | 0 W/m² | - |
| 1778047578 | 12.22° C | 93% | 1011.6 hPa | 0 mm | 9.83 m/s, 191° | 0 W/m² | - |
| 1778047274 | 12.22° C | 93% | 1011.6 hPa | 0 mm | 8.49 m/s, 232° | 0 W/m² | - |
| 1778046972 | 12.22° C | 93% | 1011.6 hPa | 0 mm | 8.49 m/s, 201° | 0 W/m² | - |
| 1778046668 | 12.22° C | 93% | 1011.5 hPa | 0 mm | 8.49 m/s, 177° | 0 W/m² | - |
| 1778046365 | 12.22° C | 93% | 1011.7 hPa | 0 mm | 7.15 m/s, 194° | 0 W/m² | - |
| 1778046061 | 12.22° C | 93% | 1011.7 hPa | 0 mm | 8.49 m/s, 193° | 0 W/m² | - |
| 1778045759 | 12.22° C | 93% | 1011.9 hPa | 0 mm | 11.18 m/s, 196° | 0 W/m² | - |
| 1778045458 | 12.22° C | 93% | 1011.9 hPa | 0 mm | 12.52 m/s, 207° | 0 W/m² | - |
* Rain latest hour (hover to see other rain measurements)
** Current wind speed in m/s (hover to see current wind gust speed)